Weather in Rathenow

Germany     52°36′19″N   12°20′32″E
temp.,
°C
wind,
m/s
gust,
m/s
humid.,
%
clouds,
%
prec.,
mm/h
press.,
hPa
HPBL,
m
15 april, thu
thu1523:00+2nne2584100 0.0 1028119
02:000nne248695 0.0 102968
05:000nnw2486100 0.0 1029103
08:00+2n3581100 0.0 1029229
11:00+7n4848100 0.0 10291294
14:00+8nne5739100 0.0 10282339
17:00+7nne5848100 0.0 10281837
20:00+5nne4960100 0.0 1027753
16 april, fri
fri1623:00+3n41061100 0.0 1027588
02:00+3n41167100 0.0 1026559
05:00+3n41074100 0.0 1026495
08:00+3n497279 0.0 1026472
11:00+8nne4654100 0.0 10261050
14:00+10n4546100 0.0 10251640
17:00+9nne564794 0.0 10251497
20:00+6nne486084 0.0 1025453
17 april, sat
sat1723:00+3n287592 0.0 1025223
02:00+4nnw387097 0.0 1024373
05:00+3n3889100 0.4 1024635
08:00+3n3798100 3.0 1024556
11:00+4n3596100 0.3 1024480
14:00+6n2491100 0.4 1023609
17:00+7n2489100 0.1 1023541
20:00+7nnw2495100 0.1 1023130
18 april, sun
sun1823:00+6n2498100 0.3 1023152
02:00+6n259898 0.6 1022257
05:00+5nne259894 0.0 1022246
08:00+6n2496100 0.1 1022215
11:00+9n3489100 0.3 1022521
14:00+11n347899 0.9 1021907
17:00+10n3689100 1.3 1020446
20:00+8nnw2497100 1.5 1020135
19 april, mon
mon1923:00+7n249874 1.3 1020148
02:00+6n239898 1.3 102092
05:00+6n2498100 0.0 1020147
08:00+7n2497100 0.1 1020223
11:00+9n2290100 0.1 1019429
14:00+12nnw22708 0.1 1018756
17:00+14nnw3355100 0.1 10171391
20:00+9nnw248799 0.3 101678